Chicago, Illinois, United States (60601)
Lat: 41.85N, Lon: 87.65W
Wx Zone: ILZ014
Local Info
Past Weather Observations for Tuesday, September 16, 2014

NOTE: This archive is for the closest National Weather Service station to Chicago. Information may differ from the station used for current weather conditions.

Click here for Long-term Archive

Time Weather Temperature Dewpoint Humidity Pressure Winds Precip Visibility
23:51
Partly Cloudy
54°F / 12°C 48°F / 9°C 82% 30.18 in
(1022 mb)
NNW 9.2 mph
(NNW 15 kph)
- 10SM
22:51
Partly Cloudy
54°F / 12°C 50°F / 10°C 88% 30.18 in
(1022 mb)
NNW 9.2 mph
(NNW 15 kph)
- 10SM
22:43
Mostly Cloudy
54°F / 12°C 48°F / 9°C 82% 30.18 in
(1022 mb)
NNW 9.2 mph
(NNW 15 kph)
- 10SM
21:51
Mostly Cloudy
55°F / 13°C 48°F / 9°C 77% 30.18 in
(1022 mb)
NNW 11.5 mph
(NNW 19 kph)
- 10SM
20:51
Mostly Cloudy
57°F / 14°C 52°F / 11°C 82% 30.15 in
(1021 mb)
NNW 9.2 mph
(NNW 15 kph)
- 10SM
20:29
Overcast
57°F / 14°C 52°F / 11°C 82% 30.15 in
(1021 mb)
N 10.4 mph
(N 17 kph)
- 10SM
19:51
Overcast
57°F / 14°C 52°F / 11°C 82% 30.15 in
(1021 mb)
N 12.7 mph
(N 20 kph)
- 10SM
19:13
Overcast
61°F / 16°C 54°F / 12°C 77% 30.12 in
(1020 mb)
N 9.2 mph
(N 15 kph)
- 9SM
18:51
Overcast
61°F / 16°C 54°F / 12°C 77% 30.12 in
(1020 mb)
N 6.9 mph
(N 11 kph)
0.00 in
(0.00 mm)
9SM
18:04
Overcast
Drizzle
61°F / 16°C 54°F / 12°C 77% 30.12 in
(1020 mb)
NNW 9.2 mph
(NNW 15 kph)
0.00 in
(0.00 mm)
9SM
17:51
Overcast
61°F / 16°C 54°F / 12°C 77% 30.12 in
(1020 mb)
NW 6.9 mph
(NW 11 kph)
- 9SM
17:17
Overcast
61°F / 16°C 54°F / 12°C 77% 30.12 in
(1020 mb)
NW 5.8 mph
(NW 9 kph)
- 9SM
16:51
Overcast
59°F / 15°C 54°F / 12°C 82% 30.09 in
(1019 mb)
NW 4.6 mph
(NW 7 kph)
0.00 in
(0.00 mm)
9SM
16:37
Overcast
61°F / 16°C 54°F / 12°C 77% 30.09 in
(1019 mb)
NNW 5.8 mph
(NNW 9 kph)
0.00 in
(0.00 mm)
9SM
15:51
Overcast
Drizzle
57°F / 14°C 54°F / 12°C 88% 30.09 in
(1019 mb)
NW 5.8 mph
(NW 9 kph)
0.00 in
(0.00 mm)
9SM
15:45
Overcast
Drizzle
57°F / 14°C 54°F / 12°C 88% 30.09 in
(1019 mb)
WNW 5.8 mph
(WNW 9 kph)
0.00 in
(0.00 mm)
9SM
14:51
Overcast
59°F / 15°C 54°F / 12°C 82% 30.09 in
(1019 mb)
W 5.8 mph
(W 9 kph)
- 10SM
14:39
Overcast
59°F / 15°C 52°F / 11°C 77% 30.09 in
(1019 mb)
WNW 5.8 mph
(WNW 9 kph)
- 10SM
13:51
Overcast
59°F / 15°C 52°F / 11°C 77% 30.09 in
(1019 mb)
SSW 6.9 mph
(SSW 11 kph)
- 10SM
12:51
Overcast
61°F / 16°C 52°F / 11°C 72% 30.09 in
(1019 mb)
SW 8.1 mph
(SW 13 kph)
- 10SM
11:51
Overcast
61°F / 16°C 52°F / 11°C 72% 30.09 in
(1019 mb)
SW 11.5 mph
(SW 19 kph)
- 10SM
10:51
Overcast
61°F / 16°C 52°F / 11°C 72% 30.12 in
(1020 mb)
SW 8.1 mph
(SW 13 kph)
- 10SM
09:51
Overcast
61°F / 16°C 52°F / 11°C 72% 30.12 in
(1020 mb)
S 6.9 mph
(S 11 kph)
- 10SM
08:51
Overcast
61°F / 16°C 50°F / 10°C 68% 30.12 in
(1020 mb)
W 3.5 mph
(W 6 kph)
- 10SM
07:51
Overcast
57°F / 14°C 50°F / 10°C 77% 30.15 in
(1021 mb)
SW 9.2 mph
(SW 15 kph)
0.00 in
(0.00 mm)
10SM
06:51
Overcast
Light Rain
57°F / 14°C 48°F / 9°C 72% 30.15 in
(1021 mb)
Variable 5.8 mph
(Variable 9 kph)
0.00 in
(0.00 mm)
10SM
05:51
Overcast
57°F / 14°C 48°F / 9°C 72% 30.15 in
(1021 mb)
S 4.6 mph
(S 7 kph)
- 10SM
04:51
Mostly Cloudy
55°F / 13°C 48°F / 9°C 77% 30.15 in
(1021 mb)
Calm 0.00 in
(0.00 mm)
10SM
03:51
Mostly Cloudy
55°F / 13°C 46°F / 8°C 72% 30.15 in
(1021 mb)
SSE 3.5 mph
(SSE 6 kph)
- 10SM
02:51
Mostly Cloudy
55°F / 13°C 46°F / 8°C 72% 30.15 in
(1021 mb)
S 3.5 mph
(S 6 kph)
- 10SM
01:51
Mostly Cloudy
55°F / 13°C 48°F / 9°C 77% 30.18 in
(1022 mb)
Calm - 10SM
00:51
Mostly Cloudy
55°F / 13°C 48°F / 9°C 77% 30.18 in
(1022 mb)
Calm - 10SM
Time Weather Temperature Dewpoint Humidity Pressure Winds Precip Visibility


Weather for websites

WeatherForYou.com, LLC is not responsible for any damages or problems caused by this service. Current weather conditions are obtained from the closest station including government and personal stations which may have varying degrees of accuracy. Weather forecasts are derived from the NOAA NDFD. Like all things, this site belongs to Jesus Christ... He just trusts me to maintain it. If you have any questions or comments email webmaster@weatherforyou.com

Copyright © 2014, WeatherForYou.com LLC. All rights reserved.